Weather in Hanoi

Vietnam     21°01′45″N   105°51′08″E
temp.,
°C
wind,
m/s
gust,
m/s
humid.,
%
clouds,
%
prec.,
mm/h
press.,
hPa
HPBL,
m
23 october, sat
sat2301:00+18nne41063100 0.0 1021553
04:00+18ne4964100 0.0 1021499
07:00+17nne4964100 0.0 1023494
10:00+18nne4864100 0.0 1024567
13:00+22nne565198 0.0 1021979
16:00+21ne455593 0.0 1019750
19:00+19ne356553 0.0 1021176
22:00+17ne366763 0.0 1022177
24 october, sun
sun2401:00+17n2667100 0.0 1021276
04:00+18nnw3567100 0.0 1020236
07:00+18nnw2571100 0.0 1022246
10:00+20n4761100 0.0 1023591
13:00+21n3656100 0.0 1019823
16:00+22n245999 0.0 1017412
19:00+21n256343 0.0 1019165
22:00+19n236810 0.0 102083
25 october, mon
mon2501:00+18n237399 0.0 101991
04:00+19nnw2372100 0.0 1018110
07:00+19nnw2374100 0.0 1019149
10:00+21nnw2367100 0.0 1020359
13:00+25ne235215 0.0 10161101
16:00+25ne22535 0.0 10141154
19:00+22e11649 0.0 101680
22:00+21se12695 0.0 101735
26 october, tue
tue2601:00+20ene11746 0.0 101636
04:00+19nne22795 0.0 101568
07:00+20n22765 0.0 1017138
10:00+25nne225842 0.0 1018788
13:00+26se115594 0.0 10141037
16:00+26s115686 0.0 1013831
19:00+24sw126553 0.0 101537
22:00+23sse227145 0.0 101659
27 october, wed
wed2701:00+23ese117597 0.0 101642
04:00+23nne2574100 0.0 1016229
07:00+22nne377281 0.0 1017391
10:00+24nne566091 0.0 1018689
13:00+27nne45513 0.0 10151140
16:00+27ne34517 0.0 10141393
19:00+25ne4862100 0.0 1015408
22:00+23nne4765100 0.0 1017357